カタログに戻る

COSMOS 1375 DEB

運用中LEO
NORAD 17803·DEBRIS·🇷🇺 Russia

打ち上げ Jun 6, 1982 から Plesetsk Cosmodrome

Loading…

次のパス (今後24時間)

TLE

最新Source: Space-Track

元期: Sep 14, 2026, 06:32 UTC

1 17803U 82055AV  26257.27255838  .00000061  00000-0  13419-3 0  9999
2 17803  65.8348   6.1104 0044552 194.1879 190.1546 13.80941723 56191

AllMySatでCOSMOS 1375 DEBをリアルタイム追跡

Download on the App Store